IK5SRE Weather Reports


time (UTC)temp
C
wind
direction
speed
KPH
gust
KPH
rain 1hr
cm
rain 24hr
cm
rain mn
cm
humidity
%
barometer
mb
20260507183516 16 293 4.8 9.7 0.00 0.00 0.00 68 1013.1
20260507182515 16 270 1.6 8.0 0.00 0.00 0.00 68 1013.1
20260507181515 16 248 1.6 4.8 0.00 0.00 0.00 66 1013.2
20260507180516 16 293 3.2 8.0 0.00 0.00 0.00 65 1013.2
20260507175516 17 293 3.2 6.4 0.00 0.00 0.00 64 1013.1
20260507174516 17 0 1.6 3.2 0.00 0.00 0.00 65 1013.1
20260507173515 18 0.0 4.8 0.00 0.00 0.00 63 1012.9
20260507172516 18 293 1.6 4.8 0.00 0.00 0.00 59 1012.9
20260507171536 19 293 1.6 4.8 0.00 0.00 0.00 59 1012.9
20260507170516 19 293 1.6 6.4 0.00 0.00 0.00 57 1012.9
20260507165516 19 203 3.2 8.0 0.00 0.00 0.00 55 1013.0
20260507164517 20 270 1.6 6.4 0.00 0.00 0.00 54 1013.0
20260507163516 20 270 3.2 8.0 0.00 0.00 0.00 53 1013.0
20260507162515 20 248 1.6 8.0 0.00 0.00 0.00 56 1013.1
20260507161516 20 293 1.6 4.8 0.00 0.00 0.00 53 1013.1
20260507160515 20 293 3.2 9.7 0.00 0.00 0.00 54 1013.0
20260507155516 20 293 4.8 11.3 0.00 0.00 0.00 53 1013.1
20260507154516 21 180 3.2 8.0 0.00 0.00 0.00 52 1013.0
20260507153516 21 270 4.8 11.3 0.00 0.00 0.00 49 1013.0
20260507152516 21 270 1.6 6.4 0.00 0.00 0.00 54 1013.0
20260507151516 21 293 4.8 11.3 0.00 0.00 0.00 51 1013.0
20260507150516 21 270 4.8 12.9 0.00 0.00 0.00 48 1013.0
20260507145516 21 203 3.2 11.3 0.00 0.00 0.00 51 1013.1
20260507144515 21 180 3.2 16.1 0.00 0.00 0.00 51 1013.3
20260507143515 21 270 3.2 9.7 0.00 0.00 0.00 51 1013.2
20260507142517 21 180 4.8 19.3 0.00 0.00 0.00 52 1013.2
20260507141516 21 248 4.8 11.3 0.00 0.00 0.00 52 1013.4
20260507140517 21 248 4.8 11.3 0.00 0.00 0.00 52 1013.3
20260507135516 21 270 4.8 12.9 0.00 0.00 0.00 50 1013.4
20260507134515 21 180 6.4 16.1 0.00 0.00 0.00 49 1013.4
20260507133516 22 293 6.4 16.1 0.00 0.00 0.00 50 1013.5
20260507132515 21 270 6.4 14.5 0.00 0.00 0.00 51 1013.6
20260507131516 22 225 4.8 14.5 0.00 0.00 0.00 52 1013.6
20260507130516 22 248 3.2 8.0 0.00 0.00 0.00 54 1013.6
20260507125516 22 180 6.4 17.7 0.00 0.00 0.00 53 1013.7
20260507124516 22 293 4.8 12.9 0.00 0.00 0.00 53 1013.7
20260507123516 22 180 6.4 17.7 0.00 0.00 0.00 54 1013.7
20260507122516 22 225 4.8 9.7 0.00 0.00 0.00 53 1013.6
20260507121516 21 293 4.8 9.7 0.00 0.00 0.00 54 1013.6
20260507120516 22 203 3.2 11.3 0.00 0.00 0.00 56 1013.8
20260507115515 21 293 6.4 14.5 0.00 0.00 0.00 55 1013.6
20260507114516 22 225 4.8 12.9 0.00 0.00 0.00 56 1013.8
20260507113516 21 180 6.4 14.5 0.00 0.00 0.00 57 1013.8
20260507112536 21 180 6.4 14.5 0.00 0.00 0.00 56 1014.0
20260507111516 21 180 4.8 12.9 0.00 0.00 0.00 61 1014.0
20260507110515 21 270 3.2 14.5 0.00 0.00 0.00 60 1014.0
20260507105515 21 180 4.8 12.9 0.00 0.00 0.00 63 1014.2
20260507104515 21 180 4.8 14.5 0.00 0.00 0.00 62 1014.3
20260507103515 20 180 4.8 17.7 0.00 0.00 0.00 64 1014.5
20260507102516 20 180 6.4 19.3 0.00 0.00 0.00 65 1014.6
20260507101516 20 180 4.8 12.9 0.00 0.00 0.00 66 1014.6
20260507100515 20 180 4.8 14.5 0.00 0.00 0.00 65 1014.6
20260507095536 19 180 9.7 19.3 0.00 0.00 0.00 67 1014.5
20260507094516 20 203 3.2 8.0 0.00 0.00 0.00 69 1014.6
20260507093517 19 180 4.8 14.5 0.00 0.00 0.00 69 1014.6
20260507092517 19 180 3.2 12.9 0.00 0.00 0.00 68 1014.7
20260507091516 18 180 6.4 9.7 0.00 0.00 0.00 72 1014.8
20260507090516 18 203 1.6 4.8 0.00 0.00 0.00 72 1014.9
20260507085517 18 180 4.8 11.3 0.00 0.00 0.00 74 1014.9
20260507084516 17 180 3.2 9.7 0.00 0.00 0.00 74 1014.9
20260507083515 18 180 3.2 9.7 0.00 0.00 0.00 78 1014.9
20260507082516 17 0.0 6.4 0.00 0.00 0.00 80 1014.8
20260507081516 17 180 3.2 8.0 0.00 0.00 0.00 79 1014.8
20260507080536 17 180 1.6 6.4 0.00 0.00 0.00 81 1014.8
20260507075516 16 180 1.6 6.4 0.00 0.00 0.00 82 1014.9
20260507074515 16 158 3.2 8.0 0.00 0.00 0.00 81 1014.8
20260507073536 15 203 1.6 6.4 0.00 0.00 0.00 83 1014.8
20260507072536 16 0.0 6.4 0.00 0.00 0.00 83 1014.8
20260507071516 16 135 3.2 8.0 0.00 0.00 0.00 82 1014.7
20260507070517 15 113 1.6 8.0 0.00 0.00 0.00 85 1014.7
20260507065537 15 135 3.2 8.0 0.00 0.00 0.00 83 1014.5
20260507064516 14 158 3.2 8.0 0.00 0.03 0.00 86 1014.4
20260507063516 14 158 1.6 6.4 0.00 0.05 0.00 85 1014.4
20260507062516 14 0.0 3.2 0.00 0.05 0.00 87 1014.3
20260507061516 13 180 1.6 4.8 0.00 0.05 0.00 86 1014.3
20260507060516 13 180 1.6 6.4 0.00 0.13 0.00 85 1014.2
20260507055516 13 0.0 3.2 0.00 0.33 0.00 86 1014.1
20260507054516 13 0.0 3.2 0.00 0.56 0.00 86 1014.0
20260507053516 12 0.0 3.2 0.00 0.71 0.00 86 1013.8
20260507052516 12 0 1.6 4.8 0.00 0.76 0.00 86 1013.8
20260507051516 12 0 1.6 6.4 0.00 0.89 0.00 86 1013.8
20260507050516 12 23 3.2 6.4 0.00 1.19 0.00 87 1013.7
20260507045516 11 0 1.6 4.8 0.00 1.52 0.00 88 1013.6
20260507044516 11 293 3.2 8.0 0.00 1.68 0.00 88 1013.4
20260507043515 11 0 3.2 9.7 0.00 1.93 0.00 88 1013.4
20260507042516 11 293 4.8 8.0 0.00 2.13 0.00 88 1013.4
20260507041515 11 293 3.2 6.4 0.00 2.39 0.00 87 1013.3
20260507040516 11 293 3.2 6.4 0.00 2.67 0.00 87 1013.3
20260507035516 11 23 1.6 8.0 0.00 2.77 0.00 87 1013.3
20260507034516 11 293 3.2 9.7 0.00 2.97 0.00 87 1013.3
20260507033536 11 293 1.6 4.8 0.00 3.07 0.00 87 1013.3
20260507032516 11 293 1.6 8.0 0.00 3.15 0.00 87 1013.2
20260507031516 11 293 3.2 8.0 0.00 3.30 0.00 88 1013.1
20260507030517 11 293 1.6 6.4 0.00 3.40 0.00 88 1013.1
20260507025516 11 0 1.6 6.4 0.00 3.66 0.00 87 1013.3
20260507024516 11 0 3.2 6.4 0.00 3.73 0.00 87 1013.4
20260507023516 11 23 1.6 8.0 0.00 4.06 0.00 87 1013.3
20260507022516 11 0.0 3.2 0.00 4.19 0.00 87 1013.3
20260507021516 11 293 3.2 6.4 0.00 4.22 0.00 87 1013.4
20260507020536 11 293 3.2 6.4 0.00 4.22 0.00 87 1013.3
20260507015536 11 293 3.2 8.0 0.00 4.22 0.00 87 1013.4
20260507014536 12 293 3.2 8.0 0.00 4.22 0.00 86 1013.1
20260507013515 12 293 3.2 8.0 0.00 4.22 0.00 86 1013.2
20260507012516 12 293 3.2 8.0 0.00 4.24 0.00 86 1013.3
20260507011516 12 23 3.2 6.4 0.00 4.32 0.00 86 1013.3
20260507010536 12 293 3.2 6.4 0.00 4.57 0.00 87 1013.4
20260507005515 12 293 1.6 6.4 0.00 4.75 0.00 87 1013.3
20260507004515 12 293 1.6 6.4 0.00 4.85 0.00 87 1013.3
20260507003536 12 293 3.2 8.0 0.00 4.88 0.00 87 1013.2
20260507002516 12 293 3.2 8.0 0.00 4.88 0.00 87 1013.3
20260507001516 12 293 3.2 8.0 0.00 4.98 0.00 86 1013.3
20260507000515 12 293 3.2 8.0 0.00 5.18 0.00 87 1013.4
20260506235515 12 23 3.2 6.4 0.00 5.28 0.00 87 1013.4
20260506234515 13 23 3.2 6.4 0.00 5.46 0.00 87 1013.4
20260506233536 13 23 3.2 8.0 0.00 5.49 0.00 87 1013.5
20260506232536 13 293 3.2 6.4 0.00 5.56 0.00 87 1013.4
20260506231516 13 0 3.2 8.0 0.00 5.69 0.00 86 1013.3
20260506230516 13 23 3.2 8.0 0.00 5.79 0.00 86 1013.3
20260506225516 13 23 1.6 9.7 0.00 5.84 0.00 85 1013.3
20260506224516 13 0 4.8 8.0 0.00 5.84 0.00 85 1013.2
20260506223517 13 293 3.2 8.0 0.00 5.84 0.00 85 1013.1
20260506222516 13 293 3.2 6.4 0.00 5.84 0.00 85 1013.2
20260506221516 13 293 3.2 8.0 0.00 5.84 0.00 84 1013.1
20260506220516 14 293 4.8 8.0 0.00 5.84 0.00 84 1013.1
20260506215516 14 293 1.6 6.4 0.00 5.84 5.84 83 1013.1
20260506214516 14 293 4.8 9.7 0.00 5.84 5.84 84 1013.0
20260506214016 14 293 6.4 11.3 0.00 5.84 5.84 84 1013.0
20260506213016 14 293 4.8 8.0 0.00 5.84 5.84 84 1013.0
20260506212016 14 293 3.2 9.7 0.00 5.84 5.84 85 1012.9
20260506211016 14 293 4.8 9.7 0.00 5.84 5.84 85 1012.9
20260506210016 14 293 1.6 6.4 0.00 5.87 5.84 85 1012.9
20260506205016 14 270 1.6 8.0 0.00 5.87 5.84 86 1012.7
20260506204016 15 293 1.6 8.0 0.00 5.87 5.84 86 1012.6
20260506203016 15 293 3.2 6.4 0.00 5.87 5.84 86 1012.6
20260506202036 15 293 3.2 8.0 0.00 5.87 5.84 86 1012.6
20260506201016 15 293 1.6 6.4 0.00 5.87 5.84 86 1012.6
20260506200016 15 293 3.2 6.4 0.00 5.87 5.84 86 1012.4
20260506195057 15 293 3.2 6.4 0.00 5.87 5.84 86 1012.2
20260506194017 15 293 3.2 6.4 0.00 5.87 5.84 87 1012.1
20260506193016 15 293 3.2 6.4 0.00 5.87 5.84 87 1012.0
20260506192037 15 293 1.6 6.4 0.00 5.97 5.84 87 1011.8
20260506191016 16 293 1.6 4.8 0.00 5.97 5.84 87 1011.7
20260506190116 16 0.0 3.2 0.00 5.97 5.84 87 1011.5
20260506185016 16 0.0 1.6 0.00 5.97 5.84 87 1011.3